EW4389 Weather Reports


Display with metric or nautical units.
time (UTC)temp
F
wind
direction
speed
MPH
gust
MPH
rain 1hr
in
rain 24hr
in
rain mn
in
humidity
%
barometer
mb
20260901104557 70 278 5.0 12.0 0.00 1.17 0.06 32 1009.9
20260901103050 70 276 3.0 10.0 0.00 1.17 0.06 32 1009.7
20260901101554 70 275 3.0 10.0 0.00 1.17 0.06 32 1009.6
20260901100049 70 265 2.0 9.0 0.03 1.17 0.06 32 1009.6
20260901094550 70 288 2.0 8.0 0.03 1.22 0.06 32 1009.7
20260901093052 70 271 3.0 9.0 0.03 1.22 0.06 32 1009.7
20260901091558 70 286 2.0 9.0 0.03 1.22 0.06 32 1009.8
20260901090047 70 277 6.0 11.0 0.00 1.19 0.03 33 1009.9
20260901084543 69 274 5.0 11.0 0.00 1.23 0.03 33 1009.7
20260901083041 69 250 5.0 14.0 0.00 1.23 0.03 33 1009.7
20260901081538 68 241 4.0 11.0 0.00 1.23 0.03 33 1009.8
20260901080037 68 271 3.0 8.0 0.00 1.23 0.03 33 1010.0
20260901074545 68 276 2.0 9.0 0.00 1.23 0.03 33 1010.4
20260901073034 68 258 1.0 9.0 0.00 1.23 0.03 33 1010.5
20260901071535 68 266 2.0 7.0 0.00 1.23 0.03 33 1010.8
20260901070029 68 266 1.0 7.0 0.00 1.23 0.03 33 1011.0
20260901064529 68 271 2.0 5.0 0.00 1.23 0.03 33 1011.1
20260901063032 68 257 2.0 7.0 0.00 1.23 0.03 33 1011.0
20260901061526 69 256 4.0 10.0 0.02 1.23 0.03 33 1011.3
20260901060024 69 271 3.0 12.0 0.02 1.23 0.03 33 1011.5
20260901054521 68 239 4.0 10.0 0.02 1.23 0.03 33 1011.7
20260901053019 67 258 1.0 8.0 0.02 1.23 0.03 33 1012.0
20260901051517 67 288 1.0 4.0 0.01 1.21 0.01 33 1012.0
20260901050016 67 288 0.0 2.0 0.01 1.21 0.01 33 1012.1
20260901044515 68 288 0.0 2.0 0.01 1.21 0.01 33 1012.1
20260901043018 68 288 0.0 3.0 0.01 1.21 0.01 33 1012.1
20260901041511 68 288 0.0 4.0 0.00 1.20 0.00 33 1012.2
20260901040010 68 288 0.0 4.0 0.00 1.20 0.00 33 1012.3
20260901034509 68 289 1.0 6.0 0.00 1.20 1.20 33 1012.2
20260901033010 68 293 1.0 6.0 0.00 1.20 1.20 33 1012.2
20260901031506 68 295 2.0 6.0 0.00 1.20 1.20 33 1012.6
20260901030005 68 304 1.0 4.0 0.00 1.20 1.20 33 1012.7
20260901024505 69 304 1.0 4.0 0.00 1.20 1.20 33 1012.8
20260901023014 69 305 2.0 10.0 0.00 1.20 1.20 33 1013.1
20260901021502 69 283 3.0 8.0 0.00 1.20 1.20 33 1013.1
20260901020001 69 281 3.0 9.0 0.00 1.20 1.20 33 1013.1
20260901014503 69 272 3.0 9.0 0.00 1.20 1.20 33 1013.0
20260901013101 69 275 2.0 8.0 0.00 1.20 1.20 33 1013.0
20260901011559 69 275 3.0 10.0 0.00 1.20 1.20 33 1013.1
20260901010101 69 263 1.0 4.0 0.00 1.20 1.20 33 1012.7
20260901004605 69 261 2.0 10.0 0.00 1.21 1.20 32 1012.8
20260901003102 70 281 2.0 8.0 0.00 1.21 1.20 32 1012.8
20260901001613 70 279 2.0 9.0 0.00 1.21 1.20 33 1012.8
20260901000054 70 283 1.0 8.0 0.00 1.21 1.20 33 1012.8
20260831234554 70 287 4.0 12.0 0.00 1.22 1.20 33 1012.7
20260831233052 70 288 3.0 11.0 0.00 1.22 1.20 32 1012.7
20260831231554 70 268 1.0 9.0 0.00 1.22 1.20 32 1012.7
20260831230052 70 277 3.0 7.0 0.00 1.22 1.20 32 1012.8
20260831224555 70 294 3.0 10.0 0.00 1.22 1.20 33 1012.8
20260831223050 70 265 1.0 5.0 0.00 1.22 1.20 33 1012.8
20260831221559 70 266 0.0 2.0 0.00 1.22 1.20 33 1012.9
20260831220049 70 267 0.0 3.0 0.00 1.22 1.20 33 1012.9
20260831214556 70 266 0.0 4.0 0.00 1.22 1.20 32 1012.9
20260831213053 70 266 0.0 3.0 0.01 1.22 1.20 33 1013.0
20260831211546 70 267 1.0 5.0 0.01 1.22 1.20 33 1013.0
20260831210047 69 267 0.0 5.0 0.01 1.22 1.20 33 1013.0
20260831204553 69 269 2.0 8.0 0.02 1.22 1.20 33 1013.0
20260831203057 69 260 3.0 9.0 0.04 1.21 1.19 33 1013.0
20260831201541 69 258 3.0 8.0 0.05 1.21 1.19 33 1013.2
20260831200041 69 257 1.0 8.0 0.06 1.21 1.19 33 1013.3
20260831194538 68 258 2.0 8.0 0.05 1.20 1.18 33 1013.4
20260831193037 68 266 4.0 10.0 0.02 1.17 1.14 33 1013.6
20260831191549 69 278 2.0 8.0 0.01 1.15 1.13 33 1013.7
20260831190034 68 276 3.0 9.0 0.00 1.14 1.12 33 1013.6
20260831184532 68 267 3.0 11.0 0.00 1.14 1.12 33 1013.6
20260831183029 68 237 4.0 9.0 0.04 1.14 1.12 33 1013.8
20260831181525 67 242 2.0 11.0 0.34 1.14 1.12 33 1013.9
20260831180027 67 241 1.0 9.0 0.39 1.14 1.12 33 1014.0
20260831174522 67 229 2.0 7.0 0.46 1.14 1.12 33 1014.2
20260831173020 67 256 2.0 7.0 0.48 1.11 1.09 33 1014.4
20260831171517 67 254 1.0 7.0 0.20 0.80 0.78 33 1014.6
20260831170023 67 244 5.0 12.0 0.18 0.75 0.73 33 1014.6
20260831164518 67 263 2.0 10.0 0.13 0.69 0.67 33 1014.7
20260831163016 67 236 2.0 9.0 0.07 0.63 0.61 33 1014.8
20260831161518 67 256 4.0 11.0 0.06 0.60 0.57 33 1015.0
20260831160016 67 252 4.0 9.0 0.09 0.56 0.55 33 1015.1
20260831154515 67 246 2.0 12.0 0.22 0.56 0.54 33 1015.1
20260831153014 67 258 4.0 9.0 0.28 0.56 0.54 33 1015.2
20260831151513 67 250 2.0 9.0 0.25 0.53 0.51 33 1015.2
20260831150013 67 265 3.0 9.0 0.22 0.48 0.46 33 1015.2
20260831144512 67 255 2.0 9.0 0.18 0.34 0.32 33 1015.2
20260831143011 67 247 2.0 6.0 0.16 0.28 0.26 33 1015.1
20260831141509 66 236 2.0 6.0 0.16 0.28 0.26 33 1015.1
20260831140012 66 232 0.0 3.0 0.14 0.26 0.24 33 1015.0
20260831134506 66 233 0.0 1.0 0.03 0.15 0.13 33 1015.3
20260831133015 66 238 0.0 7.0 0.00 0.12 0.10 33 1015.1
20260831131504 66 234 2.0 5.0 0.00 0.12 0.10 33 1015.0
20260831130003 65 231 0.0 2.0 0.00 0.12 0.10 33 1014.8
20260831124504 65 231 0.0 2.0 0.00 0.12 0.10 33 1014.9
20260831123101 65 231 2.0 10.0 0.01 0.12 0.10 33 1015.0
20260831121558 65 255 1.0 6.0 0.01 0.12 0.10 33 1015.0
20260831120058 65 260 0.0 2.0 0.01 0.12 0.10 34 1015.2
20260831114557 65 260 0.0 4.0 0.01 0.12 0.10 34 1015.1
20260831113057 65 261 1.0 3.0 0.00 0.11 0.09 33 1015.4
20260831111607 65 269 0.0 3.0 0.00 0.11 0.09 33 1015.4
20260831110056 65 269 0.0 1.0 0.00 0.11 0.09 33 1015.4